Location: Utrecht
(52.0907°N, 5.1214°E)
Time: 12:10:37
(UTC+02:00)

MOZHAYETS 4 - Visible Passes

Search period start: 30 June 2022 00:00
Search period end: 10 July 2022 00:00
Orbit: 660 x 679 km, 98.2° (Epoch: 29 June)

Date Brightness Start Highest point End Pass type
(mag) Time Alt. Az. Time Alt. Az. Time Alt. Az.
30 Jun 10.0 02:30:50 10° ESE 02:34:21 22° ENE 02:37:52 10° N visible
30 Jun 7.8 04:06:29 10° S 04:11:04 62° WSW 04:15:38 10° NNW visible
01 Jul 9.1 03:02:21 10° SE 03:06:37 38° ENE 03:10:52 10° N visible
02 Jul 10.5 02:00:35 10° E 02:02:43 13° NE 02:04:51 10° NNE visible
02 Jul 8.0 03:34:26 10° SSE 03:39:00 71° ENE 03:43:36 10° N visible
03 Jul 10.0 02:31:19 10° ESE 02:34:50 22° ENE 02:38:21 10° N visible
03 Jul 7.8 04:06:59 10° S 04:11:33 62° WSW 04:16:07 10° NNW visible
04 Jul 9.1 03:02:51 10° SE 03:07:06 38° ENE 03:11:21 10° N visible
05 Jul 10.5 02:01:03 10° E 02:03:12 13° NE 02:05:20 10° NNE visible
05 Jul 8.0 03:34:55 10° SSE 03:39:29 71° ENE 03:44:05 10° N visible
06 Jul 10.0 02:31:47 10° ESE 02:35:19 22° ENE 02:38:50 10° N visible
06 Jul 7.8 04:07:28 10° S 04:12:02 61° WSW 04:16:36 10° NNW visible
07 Jul 9.1 03:03:19 10° SE 03:07:34 38° ENE 03:11:49 10° N visible
07 Jul 8.6 04:40:36 10° SSW 04:44:43 32° W 04:48:51 10° NNW visible
08 Jul 10.5 02:01:31 10° E 02:03:40 13° NE 02:05:48 10° NNE visible
08 Jul 8.0 03:35:24 10° SSE 03:39:58 71° ENE 03:44:33 10° N visible
09 Jul 10.0 02:32:15 10° ESE 02:35:47 22° ENE 02:39:18 10° N visible
09 Jul 7.8 04:07:58 10° S 04:12:30 61° WSW 04:17:04 10° NNW visible
